TimePDT,TemperatureF,Dew PointF,Humidity,Sea Level PressureIn,VisibilityMPH,Wind Direction,Wind SpeedMPH,Gust SpeedMPH,PrecipitationIn,Events,Conditions,WindDirDegrees,DateUTC
12:15 AM,33.8,21.2,60,30.21,10.0,Calm,Calm,-,N/A,,Clear,0,2013-10-19 07:15:00
12:35 AM,35.6,23.0,60,30.21,10.0,Calm,Calm,-,N/A,,Clear,0,2013-10-19 07:35:00
12:55 AM,30.2,19.4,64,30.21,10.0,Calm,Calm,-,N/A,,Clear,0,2013-10-19 07:55:00
1:15 AM,30.2,17.6,60,30.20,10.0,Calm,Calm,-,N/A,,Clear,0,2013-10-19 08:15:00
1:35 AM,28.4,17.6,64,30.21,10.0,Calm,Calm,-,N/A,,Clear,0,2013-10-19 08:35:00
1:55 AM,28.4,19.4,69,30.21,10.0,Calm,Calm,-,N/A,,Clear,0,2013-10-19 08:55:00
2:15 AM,28.4,17.6,64,30.21,2.0,Calm,Calm,-,N/A,,Clear,0,2013-10-19 09:15:00
2:35 AM,28.4,17.6,64,30.21,4.0,Calm,Calm,-,N/A,,Clear,0,2013-10-19 09:35:00
2:55 AM,28.4,19.4,69,30.21,4.0,Calm,Calm,-,N/A,,Clear,0,2013-10-19 09:55:00
3:15 AM,28.4,19.4,69,30.20,6.0,Calm,Calm,-,N/A,,Clear,0,2013-10-19 10:15:00
3:35 AM,28.4,17.6,64,30.20,10.0,Calm,Calm,-,N/A,,Clear,0,2013-10-19 10:35:00
3:55 AM,28.4,17.6,64,30.20,10.0,Calm,Calm,-,N/A,,Clear,0,2013-10-19 10:55:00
4:15 AM,26.6,17.6,69,30.20,10.0,Calm,Calm,-,N/A,,Clear,0,2013-10-19 11:15:00
4:35 AM,26.6,17.6,69,30.19,10.0,Calm,Calm,-,N/A,,Clear,0,2013-10-19 11:35:00
4:55 AM,26.6,17.6,69,30.19,10.0,Calm,Calm,-,N/A,,Clear,0,2013-10-19 11:55:00
5:15 AM,26.6,15.8,64,30.19,1.5,Calm,Calm,-,N/A,,Clear,0,2013-10-19 12:15:00
5:35 AM,26.6,17.6,69,30.19,0.5,Calm,Calm,-,N/A,,Unknown,0,2013-10-19 12:35:00
5:55 AM,24.8,14.0,64,30.20,0.2,Calm,Calm,-,N/A,,Unknown,0,2013-10-19 12:55:00
6:15 AM,24.8,14.0,64,30.19,0.2,Calm,Calm,-,N/A,,Mostly Cloudy,0,2013-10-19 13:15:00
6:35 AM,24.8,15.8,69,30.20,0.5,Calm,Calm,-,N/A,,Unknown,0,2013-10-19 13:35:00
6:55 AM,24.8,15.8,69,30.20,0.2,Calm,Calm,-,N/A,,Unknown,0,2013-10-19 13:55:00
7:15 AM,26.6,15.8,64,30.20,1.0,Calm,Calm,-,N/A,,Clear,0,2013-10-19 14:15:00
7:35 AM,24.8,15.8,69,30.20,0.5,Calm,Calm,-,N/A,,Unknown,0,2013-10-19 14:35:00
7:55 AM,26.6,17.6,69,30.20,3.0,Calm,Calm,-,N/A,,Clear,0,2013-10-19 14:55:00
8:15 AM,28.4,19.4,69,30.20,5.0,Calm,Calm,-,N/A,,Clear,0,2013-10-19 15:15:00
8:35 AM,28.4,19.4,69,30.20,8.0,Calm,Calm,-,N/A,,Clear,0,2013-10-19 15:35:00
8:55 AM,32.0,23.0,69,30.21,9.0,Calm,Calm,-,N/A,,Clear,0,2013-10-19 15:55:00
9:15 AM,35.6,24.8,65,30.21,7.0,Calm,Calm,-,N/A,,Clear,0,2013-10-19 16:15:00
9:35 AM,37.4,26.6,65,30.21,10.0,Calm,Calm,-,N/A,,Clear,0,2013-10-19 16:35:00
9:55 AM,37.4,28.4,70,30.20,10.0,Calm,Calm,-,N/A,,Clear,0,2013-10-19 16:55:00
10:15 AM,39.2,28.4,65,30.20,10.0,Calm,Calm,-,N/A,,Clear,0,2013-10-19 17:15:00
10:35 AM,42.8,30.2,61,30.19,10.0,Calm,Calm,-,N/A,,Clear,0,2013-10-19 17:35:00
10:55 AM,44.6,30.2,57,30.19,10.0,Calm,Calm,-,N/A,,Clear,0,2013-10-19 17:55:00
11:15 AM,44.6,30.2,57,30.18,10.0,Calm,Calm,-,N/A,,Clear,0,2013-10-19 18:15:00
11:35 AM,48.2,30.2,50,30.17,10.0,Calm,Calm,-,N/A,,Clear,0,2013-10-19 18:35:00
11:55 AM,48.2,32.0,54,30.17,10.0,North,4.6,-,N/A,,Clear,350,2013-10-19 18:55:00
12:15 PM,51.8,32.0,47,30.16,10.0,Calm,Calm,-,N/A,,Clear,0,2013-10-19 19:15:00
12:35 PM,53.6,33.8,47,30.15,10.0,Calm,Calm,-,N/A,,Clear,0,2013-10-19 19:35:00
12:55 PM,53.6,33.8,47,30.14,10.0,NNE,4.6,-,N/A,,Clear,30,2013-10-19 19:55:00
1:15 PM,55.4,33.8,44,30.13,8.0,Calm,Calm,-,N/A,,Clear,0,2013-10-19 20:15:00
1:35 PM,57.2,33.8,41,30.12,8.0,Calm,Calm,-,N/A,,Clear,0,2013-10-19 20:35:00
1:55 PM,59.0,35.6,42,30.11,8.0,Calm,Calm,-,N/A,,Clear,0,2013-10-19 20:55:00
2:15 PM,60.8,35.6,39,30.10,10.0,Calm,Calm,-,N/A,,Clear,0,2013-10-19 21:15:00
2:35 PM,60.8,35.6,39,30.10,10.0,NW,3.5,-,N/A,,Clear,310,2013-10-19 21:35:00
2:55 PM,62.6,35.6,37,30.09,10.0,Calm,Calm,-,N/A,,Clear,0,2013-10-19 21:55:00
3:15 PM,64.4,35.6,34,30.08,8.0,Calm,Calm,-,N/A,,Clear,0,2013-10-19 22:15:00
3:35 PM,64.4,35.6,34,30.08,10.0,Calm,Calm,-,N/A,,Clear,0,2013-10-19 22:35:00
3:55 PM,64.4,35.6,34,30.08,10.0,North,4.6,-,N/A,,Clear,350,2013-10-19 22:55:00
4:15 PM,64.4,35.6,34,30.07,10.0,Calm,Calm,-,N/A,,Clear,0,2013-10-19 23:15:00
4:35 PM,64.4,35.6,34,30.07,10.0,Calm,Calm,-,N/A,,Clear,0,2013-10-19 23:35:00
4:55 PM,64.4,35.6,34,30.07,10.0,Calm,Calm,-,N/A,,Clear,0,2013-10-19 23:55:00
5:15 PM,62.6,35.6,37,30.07,10.0,North,4.6,-,N/A,,Clear,350,2013-10-20 00:15:00
5:35 PM,60.8,35.6,39,30.07,10.0,West,5.8,-,N/A,,Clear,270,2013-10-20 00:35:00
5:55 PM,55.4,30.2,38,30.08,10.0,West,3.5,-,N/A,,Clear,270,2013-10-20 00:55:00
6:15 PM,53.6,30.2,41,30.08,10.0,Calm,Calm,-,N/A,,Clear,0,2013-10-20 01:15:00
6:35 PM,51.8,30.2,44,30.09,10.0,WNW,6.9,-,N/A,,Clear,300,2013-10-20 01:35:00
6:55 PM,55.4,30.2,38,30.08,10.0,WNW,12.7,-,N/A,,Clear,290,2013-10-20 01:55:00
7:15 PM,55.4,30.2,38,30.08,10.0,WNW,9.2,-,N/A,,Clear,290,2013-10-20 02:15:00
7:35 PM,57.2,30.2,36,30.08,10.0,NW,6.9,-,N/A,,Clear,320,2013-10-20 02:35:00
7:55 PM,55.4,30.2,38,30.09,10.0,WNW,11.5,-,N/A,,Clear,290,2013-10-20 02:55:00
8:15 PM,55.4,28.4,36,30.09,10.0,NW,10.4,-,N/A,,Clear,310,2013-10-20 03:15:00
8:35 PM,50.0,26.6,40,30.10,10.0,Calm,Calm,-,N/A,,Clear,0,2013-10-20 03:35:00
8:55 PM,48.2,26.6,43,30.10,10.0,NNE,6.9,-,N/A,,Clear,20,2013-10-20 03:55:00
9:15 PM,48.2,28.4,46,30.11,10.0,NNW,6.9,-,N/A,,Clear,340,2013-10-20 04:15:00
9:35 PM,48.2,28.4,46,30.11,10.0,North,10.4,-,N/A,,Clear,350,2013-10-20 04:35:00
9:55 PM,48.2,28.4,46,30.12,10.0,NNW,10.4,-,N/A,,Clear,330,2013-10-20 04:55:00
10:15 PM,51.8,28.4,41,30.12,10.0,NW,9.2,-,N/A,,Clear,320,2013-10-20 05:15:00
10:35 PM,39.2,23.0,52,30.12,10.0,East,3.5,-,N/A,,Clear,100,2013-10-20 05:35:00
10:55 PM,42.8,26.6,53,30.11,10.0,West,4.6,-,N/A,,Clear,270,2013-10-20 05:55:00
11:15 PM,37.4,21.2,52,30.12,10.0,East,5.8,-,N/A,,Clear,100,2013-10-20 06:15:00
11:35 PM,37.4,24.8,60,30.12,10.0,ESE,4.6,-,N/A,,Clear,110,2013-10-20 06:35:00
11:55 PM,37.4,23.0,56,30.12,10.0,Calm,Calm,-,N/A,,Clear,0,2013-10-20 06:55:00